Regional Weather Roundup
Issued by NWS

Home | Current Version | Previous Version | Text Only | Print | Product List | Glossary On
Versions: 1 2 3 4 5 6 7 8 9 10 11 12 13 14 15 16 17 18 19 20 21 22 23 24 25 26 27 28 29 30 31 32 33 34 35 36 37 38 39 40 41 42 43 44 45 46 47 48 49 50
000
ASUS45 KABQ 262010
RWRNM
NEW MEXICO REGIONAL WEATHER ROUNDUP
NATIONAL WEATHER SERVICE ALBUQUERQUE NM
200 PM MDT FRI AUG 26 2016

NOTE: "FAIR" MEANS FEW OR NO CLOUDS BELOW 12,000 FEET AGL WITH NO
       SIGNIFICANT WEATHER OR OBSTRUCTIONS TO VISION.

      THIS PRODUCT IS RELEASED AS TWO VERSIONS.  ONE VERSION NEAR
      THE TOP OF THE HOUR CONTAINING PRELIMINARY DATA FROM ALBUQUERQUE
      AND OTHER STATIONS.  A FINAL VERSION WITH ADDITIONAL DATA IS
      ISSUED ABOUT 10 MINUTES AFTER THE HOUR.

NMZ501-503-504-510>518-262100-
NORTHWEST PLATEAU/NORTHCENTRAL MOUNTAINS

CITY           SKY/WX    TMP DP  RH WIND       PRES   REMARKS
FARMINGTON     FAIR      76  40  27 W8        30.19F
LOS ALAMOS     CLOUDY    61  51  70 NE7       30.30R
SANTA FE       PTSUNNY   73  46  38 S7G18     30.23F
TAOS           FAIR      66  45  45 W7        30.28F
ANGEL FIRE     FAIR      59  46  61 SW6       30.35F

$$
NMZ402-403-502-505>509-262100-
WESTCENTRAL MOUNTAINS/SOUTHWEST MOUNTAINS

CITY           SKY/WX    TMP DP  RH WIND       PRES   REMARKS
GALLUP         CLOUDY    71  47  42 W18       30.27F
GRANTS         FAIR      72  44  35 NE5       30.27F
SILVER CITY    FAIR      78  51  39 S6        30.18F

$$
NMZ407-409-411-412-262100-
SOUTHERN DESERTS

CITY           SKY/WX    TMP DP  RH WIND       PRES   REMARKS
DEMING         FAIR      85  53  33 N5        30.10F
LAS CRUCES     FAIR      84  51  31 SE7       30.12F
HOLLOMAN AFB   FAIR      86  52  30 S8G18     30.07F
ALAMOGORDO     FAIR      84  48  28 S9        30.10F
T OR C         FAIR      79  50  36 W13       30.15S

$$
NMZ519>523-262100-
CENTRAL VALLEYS/CENTRAL HIGHLANDS

CITY           SKY/WX    TMP DP  RH WIND       PRES   REMARKS
ALBUQUERQUE    PTSUNNY   76  46  34 S7        30.18F
DOUBLE EAGLE   PTSUNNY   79  46  31 W8        30.22
MORIARTY ARPT  PTSUNNY   68  49  50 N9G22     30.25S
CLINES CORNERS FAIR      72  48  42 W8        30.27F
BELEN          FAIR      78  42  28 W3        30.18F
SOCORRO        DRIZZLE   74  49  40 NW10      30.16F

$$
NMZ524>526-539-540-262100-
SOUTHCENTRAL MOUNTAINS

CITY           SKY/WX    TMP DP  RH WIND       PRES   REMARKS
RUIDOSO          N/A     66  48  52 S14       30.29F

$$
NMZ527>531-262100-
NORTHEAST HIGHLANDS/NORTHEAST PLAINS

CITY           SKY/WX    TMP DP  RH WIND       PRES   REMARKS
LAS VEGAS      FAIR      65  51  60 S21G26    30.25F
RATON          LGT RAIN  70  47  43 SW8       30.20F
CLAYTON        PTSUNNY   79  56  45 S18G26    30.12F

$$
NMZ532>537-262100-
EASTCENTRAL PLAINS

CITY           SKY/WX    TMP DP  RH WIND       PRES   REMARKS
TUCUMCARI      FAIR      85  53  33 SW13      30.08F
CANNON AFB     FAIR      79  58  47 SW9G17    30.13F
CLOVIS AIRPORT FAIR      81  55  41 SW13G18   30.13F

$$
NMZ028-029-538-262100-
SOUTHEAST PLAINS

CITY           SKY/WX    TMP DP  RH WIND       PRES   REMARKS
ROSWELL        FAIR      81  60  48 VRB7      30.10F
ARTESIA        FAIR      81  63  54 CALM      30.10F
CARLSBAD       FAIR      80  64  58 CALM      30.07F
HOBBS          MOSUNNY   81  61  50 VRB5      30.12F


$$



USA.gov is the U.S. government's official web portal to all federal, state and local government web resources and services.